ESSA

Stockholm/Arlanda

Airport
ICAO code
ESSA
Summary
ICAO Region
EUR
ICAO Territory
Location

Stockholm,

Elevation
137 ft
Coordinates
59° 39' 7" N , 17° 55' 7" E
KCC
Airport LOS
Parallel Runway Operation
Metar
ESSA 160750Z 01009KT 9999 BKN010 03/01 Q1000 TEMPO BKN015

Description

International airport serving the Swedish capital.

Climatology

Humid Continental climate (Köppen climate classification Dfb) - Variable weather patterns and a large seasonal temperature variance. Summers are often warm and humid with frequent thunderstorms and winters can be very cold with frequent snowfall and persistent snow cover.

Runways

Designator Length Width Surface Rops
01R/19L 2500 45 ASP Yes/Yes
8/26 2500 45 CON Yes/Yes
01L/19R 3301 45 CON Yes/Yes

SKYbrary Partners:

Safety knowledge contributed by: